STARLINK-5688, 55479

Orbit data source: Space-Track

STARLINK-5688, 55479 is a payload satellite owned by SpaceX/Seattle (US) in LEO that was launched on Thu, 02 Feb 2023 UTC via an FALCON 9 launch vehicle from the Air Force Eastern Test Range (AFETR). Payload-class satellites include a variety of spacecraft equipped with specific instruments for various scientific and technological missions. These include communications satellites like Starlink; space stations such as the ISS; scientific satellites like the Hubble; Earth observation satellites from companies like Planet Labs, Umbra, and HawkEye 360; GPS; miniature CubeSats for education and research; and military/defense satellites.

Loading next visibility...
Identifier
55479, 2023-015AG
Orbit
LEO
Country
Flag of USUS
Related business
Manufacturer
SpaceX/Seattle
Mission
Operational Commercial Communications
Bus & Motor
STARLINK, Unknown motor
Mass
305 kg wet, ~290 kg dry
Launch date (UTC)
2023-02-02 (3 years ago)
Launch vehicle
FALCON 9
Launch site
Air Force Eastern Test Range (AFETR)
Object type
Payload
Rocket body
Debris
Shape & HBR
Box + 1 Pan, 10.1 m
Radar Cross Section
13.562 m², Large (>1 m²)

Expand to show TLE details & history
Last TLE update: 12 hours ago

TLE from 12 hours ago
0 STARLINK-5688
1 55479U 23015AG  25303.30719821 -.00000038  00000-0  12281-4 0  9995
2 55479  43.0046 302.0823 0001300 265.0174  95.0520 15.02529142151285
Epoch: 2025-10-30T07:22Z
TLE epoch observation values (Epoch: 2025-10-30T07:22:21.925Z)
Latitude
-0.00001°
Longitude
152.62307°
Altitude
558.959 km
Speed
7.584 km/s
True Right ascension
20h 08m 19s
True Declination
0° 00' 00"
Sunlit
Object was in daylight at epoch
Visualization orbit readout
Latitude
Unknown
Longitude
Unknown
Altitude
Unknown
Speed
Unknown
Apparent Right ascension
Unknown
Apparent Declination
Unknown
Sunlit
N/A
Visualization observer readout
Local Sidereal Time
15:16:37
Azimuth
Unknown
Elevation
Unknown
Doppler factor
Unknown
Orbital elements
Apogee altitude
561.926 km
Perigee altitude
560.122 km
Semi-major axis
6,939.161 km
Eccentricity
0.00013
Inclination
43.0046°
RAAN
302.0823°
Arg. of periapsis
265.0174°
True anomaly
95.06684°
Mean anomaly
95.052°
Eccentric anomaly
95.05942°
Mean motion
3.75476 °/min
Orbital period
95.88 mins
BSTAR
0.000012281
Loading maneuver chart data...
Computing Atmospheric mass density...
Loading historical data...
Loading historical data...
Loading historical data...
Loading historical data...
Loading historical data...
Loading historical data...
Loading historical data...

Documentation

Showing up to 5 results
|